Location: Mountain Grove
(34.0887°N, 86.6172°W)
Time: 21:23:46
(UTC+00:00)

Cosmos 1733 Rocket - Pass Details

Date: 14 July 2020
Orbit: 604 x 627 km, 82.5° (Epoch: 08 August)

Event Time Altitude Azimuth Distance (km) Brightness Sun altitude
Exits shadow 07:57:57 58° 43° (NE) 705 3.5 -26.8°
Drops below altitude 10° 08:01:36 10° 12° (NNE) 1,955 6.5 -26.4°
Sets 08:03:49 0° 10° (N) 2,862 7.5 -26.2°
